FW7404 Weather Reports


time (UTC)temp
F
wind
direction
speed
knots
gust
knots
rain 1hr
in
rain 24hr
in
rain mn
in
humidity
%
barometer
mb
20260508231058 64 227 2.6 5.2 0.00 0.00 0.00 39 1006.7
20260508230554 65 274 0.9 5.2 0.00 0.00 0.00 38 1006.5
20260508230051 64 206 1.7 5.2 0.00 0.00 0.00 40 1006.6
20260508225549 64 207 2.6 6.1 0.00 0.00 0.00 39 1006.4
20260508225045 64 166 2.6 2.6 0.00 0.00 0.00 35 1006.5
20260508224543 65 294 1.7 5.2 0.00 0.00 0.00 35 1006.6
20260508224040 64 300 2.6 4.3 0.00 0.00 0.00 33 1006.6
20260508223538 65 282 1.7 7.0 0.00 0.00 0.00 33 1006.5
20260508223035 65 317 2.6 9.6 0.00 0.00 0.00 34 1006.7
20260508222533 65 270 2.6 6.1 0.00 0.00 0.00 32 1006.6
20260508222029 64 300 2.6 7.8 0.00 0.00 0.00 33 1006.7
20260508221525 64 151 0.9 2.6 0.00 0.00 0.00 33 1006.7
20260508221021 65 224 2.6 8.7 0.00 0.00 0.00 34 1006.7
20260508220518 65 301 4.3 6.1 0.00 0.00 0.00 33 1006.9
20260508220014 64 310 2.6 5.2 0.00 0.00 0.00 34 1006.7
20260508215511 64 326 4.3 7.0 0.00 0.00 0.00 34 1006.9
20260508215008 64 253 2.6 4.3 0.00 0.00 0.00 35 1006.7
20260508214506 65 257 5.2 7.0 0.00 0.00 0.00 35 1006.8
20260508214001 66 270 2.6 2.6 0.00 0.00 0.00 34 1006.9
20260508213500 64 315 0.9 1.7 0.00 0.00 0.00 35 1006.8
20260508212954 64 233 2.6 7.0 0.00 0.00 0.00 36 1007.1
20260508212451 65 173 4.3 5.2 0.00 0.00 0.00 35 1006.9
20260508211948 65 330 1.7 6.1 0.00 0.00 0.00 36 1006.8
20260508211443 64 259 3.5 4.3 0.00 0.00 0.00 38 1006.9
20260508210940 66 157 1.7 5.2 0.00 0.00 0.00 36 1007.1
20260508210437 66 144 1.7 6.1 0.00 0.00 0.00 35 1007.0
20260508205933 66 134 3.5 8.7 0.00 0.00 0.00 34 1007.2
20260508205431 66 231 2.6 4.3 0.00 0.00 0.00 32 1007.1
20260508204927 65 303 1.7 5.2 0.00 0.00 0.00 34 1007.2
20260508204424 67 314 2.6 6.1 0.00 0.00 0.00 32 1007.2
20260508203919 65 304 2.6 8.7 0.00 0.00 0.00 32 1007.4
20260508203416 64 293 4.3 6.1 0.00 0.00 0.00 31 1007.4
20260508202906 66 225 2.6 5.2 0.00 0.00 0.00 32 1007.4
20260508202404 64 239 3.5 8.7 0.00 0.00 0.00 34 1007.4
20260508201901 64 201 4.3 9.6 0.00 0.00 0.00 34 1007.5
20260508201357 65 162 7.0 9.6 0.00 0.00 0.00 37 1007.5
20260508200854 64 270 2.6 6.1 0.00 0.00 0.00 33 1007.8
20260508200350 64 18 2.6 11.3 0.00 0.00 0.00 32 1007.8
20260508195846 65 246 4.3 9.6 0.00 0.00 0.00 32 1008.1
20260508195343 65 264 2.6 6.1 0.00 0.00 0.00 32 1007.8
20260508194839 64 217 2.6 6.1 0.00 0.00 0.00 32 1007.8
20260508194337 63 260 0.9 2.6 0.00 0.00 0.00 35 1008.1
20260508193833 64 170 5.2 7.8 0.00 0.00 0.00 35 1008.1
20260508193330 63 173 0.9 5.2 0.00 0.00 0.00 34 1008.3
20260508192827 63 245 4.3 7.0 0.00 0.00 0.00 37 1008.4
20260508192324 63 205 4.3 9.6 0.00 0.00 0.00 34 1008.7
20260508191821 64 198 3.5 7.8 0.00 0.00 0.00 32 1008.4
20260508191318 66 255 1.7 4.3 0.00 0.00 0.00 35 1008.7
20260508190815 63 260 3.5 7.0 0.00 0.00 0.00 34 1008.8
20260508190311 64 285 2.6 11.3 0.00 0.00 0.00 33 1008.9
20260508185808 64 316 1.7 5.2 0.00 0.00 0.00 36 1008.9
20260508185306 63 353 3.5 7.0 0.00 0.00 0.00 33 1009.0
20260508184756 62 348 4.3 9.6 0.00 0.00 0.00 35 1008.9
20260508184254 63 300 5.2 7.0 0.00 0.00 0.00 36 1009.1
20260508183750 63 328 6.1 7.8 0.00 0.00 0.00 38 1009.1
20260508183246 62 100 0.9 8.7 0.00 0.00 0.00 38 1009.1
20260508182743 62 242 2.6 5.2 0.00 0.00 0.00 36 1009.2
20260508182240 62 297 4.3 7.0 0.00 0.00 0.00 36 1009.1
20260508181735 62 319 1.7 7.0 0.00 0.00 0.00 36 1009.2
20260508181232 61 306 0.9 5.2 0.00 0.00 0.00 35 1009.1
20260508180729 62 330 2.6 6.1 0.00 0.00 0.00 32 1009.2
20260508180226 62 248 4.3 7.8 0.00 0.00 0.00 35 1009.2
20260508175722 62 186 4.3 5.2 0.00 0.00 0.00 34 1009.4
20260508175219 60 164 0.9 1.7 0.00 0.00 0.00 40 1009.3
20260508174718 60 281 4.3 7.0 0.00 0.00 0.00 38 1009.7
20260508174215 62 301 7.0 7.8 0.00 0.00 0.00 36 1009.8
20260508173710 62 263 2.6 6.1 0.00 0.00 0.00 35 1010.0
20260508173206 60 245 3.5 5.2 0.00 0.00 0.00 39 1010.0
20260508172704 60 226 6.1 8.7 0.00 0.00 0.00 37 1010.1
20260508172200 60 165 2.6 5.2 0.00 0.00 0.00 37 1010.2
20260508171657 62 212 0.9 7.0 0.00 0.00 0.00 38 1010.5
20260508171153 60 68 1.7 4.3 0.00 0.00 0.00 37 1010.3
20260508170650 60 227 1.7 6.1 0.00 0.00 0.00 36 1010.5
20260508170148 59 272 3.5 8.7 0.00 0.00 0.00 39 1010.6
20260508165645 59 2 0.9 7.0 0.00 0.00 0.00 39 1010.6
20260508165142 59 276 4.3 4.3 0.00 0.00 0.00 41 1010.5
20260508164638 59 322 7.0 7.8 0.00 0.00 0.00 39 1010.7
20260508164135 60 298 2.6 4.3 0.00 0.00 0.00 37 1010.7
20260508163633 59 295 2.6 9.6 0.00 0.00 0.00 39 1010.9
20260508163130 59 297 5.2 9.6 0.00 0.00 0.00 36 1010.8
20260508162626 59 166 5.2 6.1 0.00 0.00 0.00 37 1011.0
20260508162124 59 205 6.1 6.1 0.00 0.00 0.00 38 1011.1
20260508161620 58 175 4.3 7.0 0.00 0.00 0.00 38 1011.0
20260508161118 59 323 2.6 6.1 0.00 0.00 0.00 43 1011.1
20260508160616 58 182 3.5 7.8 0.00 0.00 0.00 41 1011.1
20260508160113 58 329 4.3 7.8 0.00 0.00 0.00 40 1011.3
20260508155610 58 178 5.2 7.0 0.00 0.00 0.00 42 1011.1
20260508155107 58 27 2.6 4.3 0.00 0.00 0.00 43 1011.2
20260508154604 56 323 4.3 6.1 0.00 0.00 0.00 47 1011.2
20260508154101 56 279 3.5 5.2 0.00 0.00 0.00 45 1011.3
20260508153557 57 262 1.7 5.2 0.00 0.00 0.00 43 1011.3
20260508153054 57 227 1.7 5.2 0.00 0.00 0.00 44 1011.4
20260508152551 56 290 3.5 5.2 0.00 0.00 0.00 46 1011.4
20260508152046 56 324 2.6 4.3 0.00 0.00 0.00 47 1011.3
20260508151543 57 4 0.9 4.3 0.00 0.00 0.00 44 1011.5
20260508151040 56 204 3.5 7.0 0.00 0.00 0.00 48 1011.6
20260508150537 56 165 0.9 2.6 0.00 0.00 0.00 48 1011.5
20260508150033 56 210 2.6 4.3 0.00 0.00 0.00 47 1011.4
20260508145530 57 329 2.6 4.3 0.00 0.00 0.00 49 1011.4
20260508145026 55 157 0.0 1.7 0.00 0.00 0.00 51 1011.6
20260508144524 56 180 2.6 4.3 0.00 0.00 0.00 51 1011.7
20260508144021 55 150 2.6 4.3 0.00 0.00 0.00 53 1011.4
20260508143519 56 53 0.0 1.7 0.00 0.00 0.00 54 1011.7
20260508143015 55 125 0.9 2.6 0.00 0.00 0.00 54 1011.7
20260508142512 54 73 0.0 0.9 0.00 0.00 0.00 54 1011.7
20260508142008 55 44 2.6 4.3 0.00 0.00 0.00 52 1011.8
20260508141505 55 310 1.7 1.7 0.00 0.00 0.00 54 1012.0
20260508141003 54 29 2.6 2.6 0.00 0.00 0.00 54 1011.8
20260508140500 53 86 0.9 1.7 0.00 0.00 0.00 60 1011.6
20260508135955 54 131 0.0 0.9 0.00 0.00 0.00 61 1012.0
20260508135452 54 58 0.9 2.6 0.00 0.00 0.00 61 1012.1
20260508134948 52 119 2.6 2.6 0.00 0.00 0.00 62 1011.9
20260508134439 54 93 0.0 0.0 0.00 0.00 0.00 60 1012.1
20260508133936 52 98 0.9 1.7 0.00 0.00 0.00 65 1012.1
20260508133433 51 46 0.9 1.7 0.00 0.00 0.00 66 1012.1
20260508132930 51 132 0.9 4.3 0.00 0.00 0.00 68 1011.9
20260508132428 52 74 0.9 1.7 0.00 0.00 0.00 67 1012.0
20260508131925 51 146 1.7 1.7 0.00 0.00 0.00 67 1011.9
20260508131420 51 142 0.9 0.9 0.00 0.00 0.00 68 1011.9
20260508130917 51 117 1.7 4.3 0.00 0.00 0.00 70 1011.9
20260508130414 51 96 1.7 2.6 0.00 0.00 0.00 71 1012.2
20260508125910 50 63 0.0 0.9 0.00 0.00 0.00 72 1012.1
20260508125406 49 79 0.0 0.9 0.00 0.00 0.00 72 1012.0
20260508124904 50 77 0.0 1.7 0.00 0.00 0.00 73 1012.0
20260508124401 49 97 0.9 2.6 0.00 0.00 0.00 74 1012.0
20260508123859 48 109 0.9 2.6 0.00 0.00 0.00 75 1011.9
20260508123357 48 124 0.0 0.9 0.00 0.00 0.00 77 1012.1
20260508122853 48 111 0.0 0.9 0.00 0.00 0.00 78 1011.7
20260508122350 47 182 0.9 1.7 0.00 0.00 0.00 79 1012.0
20260508121847 46 105 1.7 1.7 0.00 0.00 0.00 81 1011.9
20260508121346 46 79 0.9 0.9 0.00 0.00 0.00 83 1011.9
20260508120843 45 83 0.9 1.7 0.00 0.00 0.00 85 1011.8
20260508120341 44 123 0.9 1.7 0.00 0.00 0.00 88 1011.7
20260508115838 45 109 0.9 1.7 0.00 0.00 0.00 90 1011.9
20260508115335 44 65 0.0 0.0 0.00 0.00 0.00 91 1012.0
20260508114832 44 117 0.0 0.0 0.00 0.00 0.00 91 1011.8
20260508114329 43 74 0.0 0.0 0.00 0.00 0.00 92 1011.7
20260508113826 42 42 0.0 0.0 0.00 0.00 0.00 92 1011.6
20260508113324 41 41 0.0 0.0 0.00 0.00 0.00 92 1011.5
20260508112820 40 41 0.0 0.0 0.00 0.00 0.00 92 1011.3
20260508112317 39 41 0.0 0.0 0.00 0.00 0.00 92 1011.6
20260508111813 38 41 0.0 0.0 0.00 0.00 0.00 92 1011.8
20260508111311 37 40 0.0 0.0 0.00 0.00 0.00 92 1011.4
20260508110808 37 40 0.0 0.0 0.00 0.00 0.00 92 1011.2
20260508110306 36 36 0.0 0.0 0.00 0.00 0.00 92 1011.5
20260508105805 36 356 0.0 0.0 0.00 0.00 0.00 92 1011.4
20260508105305 36 354 0.0 0.0 0.00 0.00 0.00 92 1011.6
20260508104759 36 354 0.0 0.0 0.00 0.00 0.00 92 1011.3
20260508104256 36 353 0.0 0.0 0.00 0.00 0.00 92 1011.3
20260508103753 36 353 0.0 0.0 0.00 0.00 0.00 92 1011.1
20260508103250 36 353 0.0 0.0 0.00 0.00 0.00 92 1011.1
20260508102747 36 357 0.0 0.0 0.00 0.00 0.00 92 1011.1
20260508102245 36 359 0.0 0.0 0.00 0.00 0.00 92 1011.2
20260508101742 37 0 0.0 0.9 0.00 0.00 0.00 92 1011.2
20260508101240 37 2 0.0 0.0 0.00 0.00 0.00 91 1011.1
20260508100738 37 2 0.0 0.0 0.00 0.00 0.00 91 1011.1
20260508100235 37 2 0.0 0.0 0.00 0.00 0.00 91 1011.0
20260508095731 37 2 0.0 0.0 0.00 0.00 0.00 91 1011.1
20260508095229 37 2 0.0 0.0 0.00 0.00 0.00 91 1011.2
20260508094725 37 2 0.0 0.0 0.00 0.00 0.00 91 1011.1
20260508094222 37 2 0.0 0.0 0.00 0.00 0.00 91 1011.3
20260508093720 38 2 0.0 0.0 0.00 0.00 0.00 91 1011.1
20260508093217 38 2 0.0 0.0 0.00 0.00 0.00 91 1011.2
20260508092714 38 2 0.0 0.0 0.00 0.00 0.00 91 1011.0
20260508092212 38 2 0.0 0.9 0.00 0.00 0.00 90 1011.1
20260508091710 38 2 0.0 0.9 0.00 0.00 0.00 90 1011.2
20260508091207 38 2 0.0 0.0 0.00 0.00 0.00 90 1011.3
20260508090704 38 3 0.0 0.9 0.00 0.00 0.00 90 1011.1
20260508090202 38 3 0.0 0.0 0.00 0.00 0.00 90 1011.2
20260508085657 39 3 0.0 0.0 0.00 0.00 0.00 89 1011.3
20260508085155 39 3 0.0 0.9 0.00 0.00 0.00 89 1011.3
20260508084651 38 3 0.0 0.0 0.00 0.00 0.00 89 1011.2
20260508084148 39 3 0.0 0.0 0.00 0.00 0.00 89 1011.3
20260508083646 39 3 0.0 0.0 0.00 0.00 0.00 89 1011.3
20260508083143 39 3 0.0 0.0 0.00 0.00 0.00 88 1011.1
20260508082638 39 3 0.0 0.0 0.00 0.00 0.00 88 1011.4
20260508082136 39 3 0.0 0.0 0.00 0.00 0.00 88 1011.5
20260508081634 40 3 0.0 0.0 0.00 0.00 0.00 88 1011.4
20260508081129 40 3 0.0 0.0 0.00 0.00 0.00 87 1011.8
20260508080627 41 4 0.0 0.0 0.00 0.00 0.00 87 1011.5
20260508080125 41 3 0.0 0.9 0.00 0.00 0.00 87 1011.6
20260508075620 41 5 0.0 0.0 0.00 0.00 0.00 86 1011.2
20260508075118 42 13 0.9 1.7 0.00 0.00 0.00 86 1011.4
20260508074616 42 152 0.0 0.9 0.00 0.00 0.00 86 1011.2
20260508074113 42 21 0.9 0.9 0.00 0.00 0.00 85 1011.4
20260508073610 42 348 0.0 0.0 0.00 0.00 0.00 85 1011.5
20260508073108 42 348 0.9 0.9 0.00 0.00 0.00 85 1011.7
20260508072603 42 348 0.0 0.0 0.00 0.00 0.00 84 1011.8
20260508072100 43 349 0.0 0.0 0.00 0.00 0.00 84 1011.6
20260508071558 43 349 0.0 0.9 0.00 0.00 0.00 84 1011.5
20260508071056 43 340 0.9 0.9 0.00 0.00 0.00 84 1011.7
20260508070553 43 341 0.0 0.9 0.00 0.00 0.00 85 1011.7
20260508070052 43 344 0.9 0.9 0.00 0.00 0.00 86 1011.5
20260508065549 42 346 0.9 1.7 0.00 0.00 0.00 87 1011.7
20260508065047 41 77 0.0 0.0 0.00 0.00 0.00 87 1011.5
20260508064544 42 77 0.0 0.0 0.00 0.00 0.00 87 1011.5
20260508064042 41 82 0.0 0.0 0.00 0.00 0.00 87 1011.7
20260508063539 41 83 0.0 0.0 0.00 0.00 0.00 87 1011.5
20260508063037 41 83 0.0 0.0 0.00 0.00 0.00 87 1011.5
20260508062534 41 83 0.0 0.0 0.00 0.00 0.00 87 1011.6
20260508062031 41 83 0.0 0.0 0.00 0.00 0.00 87 1011.3
20260508061529 41 82 0.0 0.0 0.00 0.00 0.00 86 1011.6
20260508061025 41 83 0.0 0.0 0.00 0.00 0.00 86 1011.5
20260508060522 41 83 0.0 0.9 0.00 0.00 0.00 86 1011.6
20260508060020 41 93 0.0 0.0 0.00 0.00 0.00 86 1011.5
20260508055515 41 93 0.0 0.0 0.00 0.00 0.00 85 1011.8
20260508055012 41 101 0.0 0.0 0.00 0.00 0.00 85 1011.7
20260508054509 41 124 0.0 0.0 0.00 0.00 0.00 85 1011.8
20260508054006 41 140 0.9 0.9 0.00 0.00 0.00 84 1011.7
20260508053502 41 198 0.0 0.0 0.00 0.00 0.00 84 1011.5
20260508053001 41 198 0.0 0.0 0.00 0.00 0.00 83 1011.8
20260508052458 42 198 0.0 0.0 0.00 0.00 0.00 83 1011.7
20260508051954 42 198 0.0 0.0 0.00 0.00 0.00 82 1011.6
20260508051449 42 198 0.0 0.9 0.00 0.00 0.00 81 1011.7
20260508050946 42 198 0.0 0.0 0.00 0.00 0.00 79 1011.8
20260508050442 43 186 0.0 0.0 0.00 0.00 0.00 79 1011.8
20260508045939 43 186 0.0 0.0 0.00 0.00 0.00 78 1011.7
20260508045437 44 183 0.0 0.9 0.00 0.00 0.00 77 1011.8
20260508044934 44 353 0.0 0.0 0.00 0.00 0.00 77 1011.5
20260508044431 44 352 0.0 0.0 0.00 0.00 0.00 76 1011.8
20260508043926 45 355 0.0 0.0 0.00 0.00 0.00 75 1012.0
20260508043424 45 357 0.0 0.0 0.00 0.00 0.00 73 1011.8
20260508042919 46 357 0.0 0.0 0.00 0.00 0.00 71 1011.8
20260508042418 47 350 0.9 0.9 0.00 0.00 0.00 70 1011.8
20260508041914 48 329 0.9 0.9 0.00 0.00 0.00 69 1011.7
20260508041411 48 321 0.9 0.9 0.00 0.00 0.00 68 1011.7
20260508040907 48 278 1.7 2.6 0.00 0.00 0.00 68 1011.8
20260508040405 48 281 0.9 1.7 0.00 0.00 0.00 67 1011.7
20260508035903 48 197 1.7 2.6 0.00 0.00 0.00 67 1011.5
20260508035359 48 240 2.6 2.6 0.00 0.00 0.00 66 1011.4
20260508034856 48 240 0.9 4.3 0.00 0.00 0.00 66 1011.4
20260508034354 47 146 0.0 0.9 0.00 0.00 0.00 67 1011.4
20260508033850 47 177 1.7 1.7 0.00 0.00 0.00 68 1011.4
20260508033348 47 158 0.9 0.9 0.00 0.00 0.00 68 1011.4
20260508032846 47 160 0.9 1.7 0.00 0.00 0.00 67 1011.4
20260508032343 46 188 0.0 0.9 0.00 0.00 0.00 71 1011.5
20260508031839 46 145 0.0 0.9 0.00 0.00 0.00 74 1011.8
20260508031336 46 75 0.0 0.0 0.00 0.00 0.00 73 1011.7
20260508030832 47 71 0.0 0.9 0.00 0.00 0.00 73 1011.8
20260508030330 47 73 0.0 0.0 0.00 0.00 0.00 72 1012.1
20260508025826 47 73 0.0 0.0 0.00 0.00 0.00 71 1012.2
20260508025324 47 73 0.0 0.0 0.00 0.00 0.00 70 1012.1
20260508024821 47 73 0.0 0.0 0.00 0.00 0.00 69 1012.0
20260508024317 48 73 0.0 0.0 0.00 0.00 0.00 68 1012.0
20260508023814 48 73 0.0 0.0 0.00 0.00 0.00 66 1012.0
20260508023310 48 65 0.0 0.0 0.00 0.00 0.00 65 1012.0
20260508022807 48 65 0.0 0.0 0.00 0.00 0.00 63 1011.9
20260508022306 49 78 0.9 0.9 0.00 0.00 0.00 63 1011.7
20260508021800 49 139 0.9 0.9 0.00 0.00 0.00 60 1012.1
20260508021256 49 315 0.9 0.9 0.00 0.00 0.00 60 1011.8
20260508020752 50 298 0.9 2.6 0.00 0.00 0.00 58 1011.9
20260508020251 51 180 3.5 6.1 0.00 0.00 0.00 55 1012.1
20260508015747 51 217 0.9 2.6 0.00 0.00 0.00 52 1012.0
20260508015244 51 186 0.0 2.6 0.00 0.00 0.00 52 1011.9
20260508014741 50 272 0.0 6.1 0.00 0.00 0.00 53 1011.9
20260508014238 49 261 1.7 4.3 0.00 0.00 0.00 53 1011.6
20260508013734 49 315 0.0 0.0 0.00 0.00 0.00 55 1011.6
20260508013230 49 251 0.0 0.0 0.00 0.00 0.00 54 1011.5
20260508012728 50 250 0.0 0.9 0.00 0.00 0.00 53 1011.7
20260508012225 50 221 0.0 0.9 0.00 0.00 0.00 52 1011.2
20260508011723 49 212 0.0 1.7 0.00 0.00 0.00 51 1011.0
20260508011220 48 292 0.0 0.9 0.00 0.00 0.00 55 1011.2
20260508010716 48 305 0.9 1.7 0.00 0.00 0.00 57 1011.0
20260508010215 49 238 0.0 0.0 0.00 0.00 0.00 51 1011.0
20260508005712 49 237 0.9 0.9 0.00 0.00 0.00 51 1011.2
20260508005208 50 318 0.0 0.0 0.00 0.00 0.00 51 1011.0
20260508004704 50 318 0.0 0.0 0.00 0.00 0.00 51 1011.0
20260508004200 50 318 0.0 0.0 0.00 0.00 0.00 50 1010.9
20260508003657 51 318 0.0 0.0 0.00 0.00 0.00 47 1011.0
20260508003154 51 306 0.9 0.9 0.00 0.00 0.00 47 1011.0
20260508002650 52 336 0.9 1.7 0.00 0.00 0.00 46 1011.2
20260508002149 52 270 3.5 5.2 0.00 0.00 0.00 45 1011.4
20260508001643 52 344 2.6 5.2 0.00 0.00 0.00 46 1011.1
20260508001140 52 205 4.3 7.0 0.00 0.00 0.00 47 1011.1
20260508000636 52 261 0.0 0.0 0.00 0.00 0.00 45 1011.0
20260508000133 52 233 0.9 1.7 0.00 0.00 0.00 44 1011.0
20260507235630 53 294 0.0 0.9 0.00 0.00 0.00 45 1010.7
20260507235128 53 307 1.7 2.6 0.00 0.00 0.00 43 1011.3
20260507234624 53 276 2.6 5.2 0.00 0.00 0.00 42 1011.0
20260507234120 53 248 0.9 1.7 0.00 0.00 0.00 43 1010.8
20260507233617 53 289 0.9 2.6 0.00 0.00 0.00 43 1011.1
20260507233116 53 280 0.9 4.3 0.00 0.00 0.00 43 1010.9
20260507232612 53 309 4.3 7.8 0.00 0.00 0.00 41 1011.0
20260507232110 53 308 3.5 6.1 0.00 0.00 0.00 41 1011.1
20260507231605 53 269 1.7 5.2 0.00 0.00 0.00 42 1011.0